SCP
0 0 0 0 0 0 0 0 0 0 0 0 0 0 0 0 0 0 0 0 0 0 0 0 0 0 0 0 0 0 0 0 0 0 0 0 0 0
0 0 0 0 0 0 0 0 0 0 0 0 0 0 0 0 0 0 0 0 0 0 0 0 0 0 0 0 0 0 0 0 0 0 0 0 0 0
0 0 0 0 0 0 0 0 0 0 0 0 0 0 0 0 0 0 0 0 0 0 0 0 0 0 0 0 0 0 0 0 0 0 0 0 0 0
0 0 0 0 0 0 0 0 0 0 0 0 0 0 0 0 0 0 0 0 0 0 0 0 0 0 0 -0 -0 -0 0 0 0 0 0 0 0 0
0 0 0 0 0 0 0 0 0 0 0 0 0 0 0 0 0 0 0 0 0 0 0 0 0 0 0 0 -0 -0 0 0 0 0 0 0 0 0
0 0 0 0 0 0 0 0 0 0 0 0 0 0 0 0 0 0 0 0 0 0 0 0 0 -0 -0 -0 0 0 0 0 0 0 0 0 0 0
0 0 0 0 0 0 0 0 0 0 0 0 0 0 0 0 0 0 0 0 0 0 0 0 0 0 -0 -0 -0 0 0 0 0 0 0 0 0 0
0 0 0 0 0 0 0 0 0 0 0 0 0 0 0 0 0 0 0 0 0 0 0 0 0 0 0 0 0 0 0 0 0 0 0 0 0 0
0 1 0 0 0 0 0 0 0 0 0 0 0 0 0 0 0 0 0 0 0 0 0 0 0 -0 0 0 0 0 0 0 0 0 0 0 0 0
1 0 0 0 0 0 0 0 0 0 0 0 0 0 0 0 0 0 0 0 0 0 0 0 -0 -0 0 0 0 0 0 0 0 0 0 0 0 0
0 0 0 0 0 0 0 0 0 0 0 0 0 0 0 0 0 0 0 0 0 0 0 0 0 0 0 0 0 0 0 0 0 0 0 0 0 0
0 0 0 0 0 0 0 0 0 0 0 0 0 0 0 0 0 0 0 0 0 0 0 -0 0 0 0 0 0 0 0 0 0 0 0 0 0 0
0 0 0 0 0 0 0 0 0 0 0 0 0 0 0 0 0 0 0 0 0 0 0 -0 0 0 0 0 0 0 0 0 0 0 0 0 0 0
0 0 0 0 0 0 0 0 0 0 0 0 0 0 0 0 0 0 0 0 0 0 0 0 0 0 0 0 0 0 0 0 0 0 0 0 0 0
0 0 0 0 0 0 0 0 0 0 0 0 0 0 0 0 0 0 0 0 0 0 0 0 0 0 0 0 0 0 0 0 0 0 0 0 0 0
0 0 0 0 0 0 0 0 0 0 0 0 0 0 0 0 0 0 0 0 0 -0 0 0 0 0 0 0 0 0 0 0 0 0 0 0 0 0
0 0 0 0 0 0 0 0 0 0 0 0 0 0 0 0 0 0 0 0 0 -0 0 0 -0 -0 0 0 0 0 0 0 0 0 0 0 0 0
0 0 0 0 0 0 0 0 0 0 0 0 0 0 0 0 0 0 0 0 0 -0 -0 0 0 0 0 0 0 0 0 0 0 0 0 0 0 0
0 0 0 0 0 0 0 0 0 0 0 0 0 0 0 0 0 0 0 0 0 0 -0 -0 0 0 0 -0 0 0 0 0 0 0 0 0 0 0
0 0 0 0 0 0 0 0 0 0 0 0 0 0 0 0 0 0 0 0 0 0 -0 -0 0 0 0 0 0 0 0 0 0 0 0 1 0 0
0 0 0 0 0 0 0 0 0 0 0 0 0 0 0 0 0 0 0 0 0 0 0 -0 -0 -0 0 0 0 0 0 0 0 0 0 0 0 0
0 0 0 0 0 0 0 0 0 0 0 0 0 0 0 0 0 0 0 0 0 0 0 0 -0 0 0 0 0 0 0 0 0 0 0 0 0 0
0 0 0 0 0 0 0 0 0 0 0 0 0 0 0 0 0 0 -0 0 0 0 0 0 -0 -0 -0 0 0 0 0 0 0 0 0 0 0 0
Wind_Speed_500mb
20 21 21 20 24 25 26 25 22 31 34 27 26 33 39 40 39 39 38 40 41 39 38 35 37 40 47 51 51 69 76 77 79 76 73 70 66 65
23 24 24 21 26 28 28 28 32 31 42 34 35 40 45 46 44 44 45 46 47 46 46 46 47 44 50 56 60 59 73 83 84 84 83 80 76 71
20 20 22 24 26 27 29 35 36 39 40 50 42 48 50 50 47 49 52 55 59 55 52 53 54 53 57 62 61 66 68 79 88 90 90 86 88 81
19 26 28 29 31 33 34 37 40 42 46 51 53 45 47 49 58 60 57 59 61 65 60 58 57 58 63 66 65 68 74 78 87 93 94 94 90 91
25 27 31 32 35 36 38 38 40 46 47 57 56 48 49 56 60 59 55 59 63 63 64 67 68 71 75 76 76 69 75 84 86 95 96 96 94 93
29 33 35 35 34 35 37 41 48 51 49 51 57 49 44 46 44 50 51 51 60 59 60 68 72 80 80 93 99 86 68 82 91 93 99 97 95 92
32 34 38 38 38 38 42 46 52 44 40 45 45 46 48 47 50 53 56 58 64 60 60 61 62 67 78 85 87 89 78 70 86 92 97 99 96 93
36 37 37 40 44 43 46 48 49 54 54 52 46 51 64 53 52 54 60 64 71 55 64 83 75 94 94 93 88 88 87 77 74 87 93 99 97 94
44 45 44 44 43 45 48 49 54 52 50 52 56 56 52 58 59 66 66 65 68 64 71 108 85 100 108 94 93 91 84 78 74 85 92 99 99 94
50 50 52 46 46 46 47 50 45 45 51 48 48 57 60 65 72 67 68 66 67 63 66 101 103 117 111 105 98 92 88 82 73 84 93 98 100 94
56 57 48 45 45 43 45 43 46 45 43 48 50 54 58 60 51 52 58 50 66 72 79 98 121 118 111 108 103 95 81 73 71 80 92 96 98 91
54 55 44 41 40 40 41 42 43 42 48 51 51 56 52 44 43 42 47 55 67 94 100 103 112 104 102 89 76 65 65 69 71 79 93 94 95 89
51 49 41 40 40 41 41 39 40 42 50 50 48 40 39 39 39 39 50 51 69 95 108 95 108 98 80 79 67 49 47 56 63 83 89 90 94 90
37 40 40 38 41 43 38 36 35 42 46 40 35 34 37 42 47 55 58 62 69 88 99 83 101 79 73 61 59 53 46 52 58 72 83 89 91 89
38 37 36 39 42 38 36 35 36 41 41 33 33 36 41 51 56 61 65 63 69 81 96 78 65 47 44 54 54 60 44 43 64 72 78 87 91 94
31 36 39 38 35 34 31 31 38 40 35 34 37 41 45 49 53 57 63 63 73 82 94 69 55 35 42 48 52 48 31 36 57 61 71 78 86 89
34 35 33 31 27 27 27 32 32 29 26 31 34 38 44 47 51 54 55 59 63 77 96 82 60 26 29 39 41 33 30 45 42 63 65 73 75 83
32 29 24 26 24 23 26 27 24 25 28 33 36 40 42 44 47 49 46 53 55 66 75 93 82 49 29 27 18 19 16 19 26 57 62 70 72 77
26 24 20 21 23 25 25 22 21 28 32 31 34 36 37 38 42 41 42 50 50 56 62 70 81 66 60 51 29 19 12 21 24 26 55 57 62 69
22 18 19 24 25 23 21 22 25 25 26 27 27 29 30 34 36 38 36 46 54 48 57 62 69 62 53 46 45 59 24 14 25 29 35 48 51 52
18 22 23 21 19 19 22 25 26 24 22 20 20 23 28 31 35 36 36 40 48 40 44 50 49 53 47 54 48 45 52 36 17 32 37 38 39 44
13 14 14 14 17 21 22 21 17 13 11 13 16 21 25 28 33 36 34 39 42 45 42 35 41 44 54 64 59 49 44 51 23 12 41 51 46 44
8 10 12 16 20 19 14 8 5 5 7 11 16 20 23 26 30 32 32 33 39 40 45 38 30 29 37 51 65 53 48 55 64 36 23 20 38 40
Wind_Direction_500mb
270 271 270 269 275 277 279 277 277 294 300 299 302 308 311 304 298 293 294 296 298 298 298 304 311 308 301 288 277 260 253 250 247 245 241 241 242 244
270 269 273 278 275 284 280 274 282 279 289 296 294 294 308 306 302 294 293 295 294 295 294 293 295 304 316 307 289 274 258 252 248 246 244 241 237 238
269 270 271 275 273 272 278 280 282 285 282 295 291 296 306 310 307 304 298 296 297 293 292 290 292 293 305 310 301 283 269 254 250 247 245 245 242 238
268 273 279 279 278 275 275 280 282 283 280 283 292 292 294 307 308 308 302 298 296 294 295 291 292 291 301 309 308 291 273 261 250 247 246 244 244 241
276 282 283 279 284 286 277 279 282 285 283 287 291 294 294 302 306 307 302 299 296 295 297 296 302 305 306 305 304 294 276 263 254 245 243 243 243 242
276 280 275 273 275 289 288 292 298 293 287 286 292 294 295 296 302 301 302 298 294 293 291 297 302 305 307 310 310 304 278 264 255 247 241 240 240 240
276 282 278 280 278 280 288 294 297 292 286 284 287 290 291 296 298 297 294 296 294 294 295 293 296 294 293 294 291 291 289 267 256 249 242 237 237 238
275 277 278 281 281 282 285 290 293 293 290 289 285 283 288 297 297 295 294 293 294 294 293 292 298 296 294 292 284 280 280 273 256 246 239 235 233 234
272 278 281 283 284 282 286 291 293 291 287 289 290 291 295 297 299 297 292 292 292 294 295 297 301 295 297 289 283 282 276 268 256 243 234 230 229 230
273 278 279 279 284 286 291 295 291 291 294 290 287 295 298 300 299 298 296 296 293 295 299 293 302 297 297 296 291 285 275 268 252 239 231 225 226 226
273 278 275 276 284 286 292 296 297 297 295 293 293 294 298 299 298 298 299 296 296 299 306 304 305 299 296 290 288 280 274 263 248 235 226 221 222 222
276 278 272 277 280 288 291 296 295 297 297 300 303 308 312 314 313 306 306 300 302 305 313 313 307 298 291 288 283 274 256 252 242 231 218 216 216 216
274 267 272 280 286 290 294 294 295 298 306 311 313 313 314 317 314 310 311 303 304 309 322 322 312 307 289 273 276 264 263 242 239 226 212 211 211 210
254 263 274 280 289 293 295 296 294 305 311 311 309 313 315 319 318 320 317 315 314 324 330 334 315 299 287 284 272 278 268 243 223 210 209 206 206 205
255 268 279 287 289 294 296 293 300 309 310 305 308 315 320 324 323 325 323 319 324 330 345 346 336 296 287 277 271 279 272 228 202 208 208 204 204 202
268 280 284 290 295 291 289 298 309 309 305 308 316 320 327 326 325 326 325 327 331 338 351 356 349 297 276 273 287 286 277 201 206 210 205 203 204 208
276 283 292 294 287 288 296 307 310 307 310 315 319 324 327 325 325 328 330 332 337 349 358 1 6 332 290 285 287 259 251 212 218 208 202 204 207 208
277 280 276 275 274 280 297 303 305 308 315 322 325 329 328 327 327 332 334 340 343 355 5 5 9 18 332 274 9 245 247 218 205 208 205 206 207 208
271 266 259 262 268 285 293 295 302 310 320 327 329 332 332 330 334 334 338 348 350 355 6 9 11 18 5 20 11 3 246 204 216 202 207 210 212 212
260 249 250 263 274 281 287 297 308 316 322 330 335 340 337 338 339 338 341 351 353 351 5 10 14 20 27 22 27 28 3 202 192 217 208 206 214 217
266 262 259 262 269 280 293 303 310 314 322 338 345 346 343 346 346 345 345 353 358 355 6 12 11 18 31 40 45 36 49 50 193 191 208 212 204 205
254 243 252 264 283 295 302 309 313 316 335 350 349 349 348 352 351 352 353 357 4 7 6 6 20 23 27 34 39 47 56 67 83 219 192 187 200 197
254 234 267 293 302 301 306 312 306 324 351 2 352 347 353 355 357 357 357 357 4 11 14 12 25 26 40 40 42 58 59 64 73 94 84 120 168 189
Wind_Speed_850mb
20 21 21 20 24 25 26 25 22 31 34 27 26 33 39 40 39 39 38 40 41 39 38 35 37 40 47 51 51 69 76 77 79 76 73 70 66 65
23 24 24 21 26 28 28 28 32 31 42 34 35 40 45 46 44 44 45 46 47 46 46 46 47 44 50 56 60 59 73 83 84 84 83 80 76 71
20 20 22 24 26 27 29 35 36 39 40 50 42 48 50 50 47 49 52 55 59 55 52 53 54 53 57 62 61 66 68 79 88 90 90 86 88 81
19 26 28 29 31 33 34 37 40 42 46 51 53 45 47 49 58 60 57 59 61 65 60 58 57 58 63 66 65 68 74 78 87 93 94 94 90 91
25 27 31 32 35 36 38 38 40 46 47 57 56 48 49 56 60 59 55 59 63 63 64 67 68 71 75 76 76 69 75 84 86 95 96 96 94 93
29 33 35 35 34 35 37 41 48 51 49 51 57 49 44 46 44 50 51 51 60 59 60 68 72 80 80 93 99 86 68 82 91 93 99 97 95 92
32 34 38 38 38 38 42 46 52 44 40 45 45 46 48 47 50 53 56 58 64 60 60 61 62 67 78 85 87 89 78 70 86 92 97 99 96 93
36 37 37 40 44 43 46 48 49 54 54 52 46 51 64 53 52 54 60 64 71 55 64 83 75 94 94 93 88 88 87 77 74 87 93 99 97 94
44 45 44 44 43 45 48 49 54 52 50 52 56 56 52 58 59 66 66 65 68 64 71 108 85 100 108 94 93 91 84 78 74 85 92 99 99 94
50 50 52 46 46 46 47 50 45 45 51 48 48 57 60 65 72 67 68 66 67 63 66 101 103 117 111 105 98 92 88 82 73 84 93 98 100 94
56 57 48 45 45 43 45 43 46 45 43 48 50 54 58 60 51 52 58 50 66 72 79 98 121 118 111 108 103 95 81 73 71 80 92 96 98 91
54 55 44 41 40 40 41 42 43 42 48 51 51 56 52 44 43 42 47 55 67 94 100 103 112 104 102 89 76 65 65 69 71 79 93 94 95 89
51 49 41 40 40 41 41 39 40 42 50 50 48 40 39 39 39 39 50 51 69 95 108 95 108 98 80 79 67 49 47 56 63 83 89 90 94 90
37 40 40 38 41 43 38 36 35 42 46 40 35 34 37 42 47 55 58 62 69 88 99 83 101 79 73 61 59 53 46 52 58 72 83 89 91 89
38 37 36 39 42 38 36 35 36 41 41 33 33 36 41 51 56 61 65 63 69 81 96 78 65 47 44 54 54 60 44 43 64 72 78 87 91 94
31 36 39 38 35 34 31 31 38 40 35 34 37 41 45 49 53 57 63 63 73 82 94 69 55 35 42 48 52 48 31 36 57 61 71 78 86 89
34 35 33 31 27 27 27 32 32 29 26 31 34 38 44 47 51 54 55 59 63 77 96 82 60 26 29 39 41 33 30 45 42 63 65 73 75 83
32 29 24 26 24 23 26 27 24 25 28 33 36 40 42 44 47 49 46 53 55 66 75 93 82 49 29 27 18 19 16 19 26 57 62 70 72 77
26 24 20 21 23 25 25 22 21 28 32 31 34 36 37 38 42 41 42 50 50 56 62 70 81 66 60 51 29 19 12 21 24 26 55 57 62 69
22 18 19 24 25 23 21 22 25 25 26 27 27 29 30 34 36 38 36 46 54 48 57 62 69 62 53 46 45 59 24 14 25 29 35 48 51 52
18 22 23 21 19 19 22 25 26 24 22 20 20 23 28 31 35 36 36 40 48 40 44 50 49 53 47 54 48 45 52 36 17 32 37 38 39 44
13 14 14 14 17 21 22 21 17 13 11 13 16 21 25 28 33 36 34 39 42 45 42 35 41 44 54 64 59 49 44 51 23 12 41 51 46 44
8 10 12 16 20 19 14 8 5 5 7 11 16 20 23 26 30 32 32 33 39 40 45 38 30 29 37 51 65 53 48 55 64 36 23 20 38 40
Wind_Direction_850mb
270 271 270 269 275 277 279 277 277 294 300 299 302 308 311 304 298 293 294 296 298 298 298 304 311 308 301 288 277 260 253 250 247 245 241 241 242 244
270 269 273 278 275 284 280 274 282 279 289 296 294 294 308 306 302 294 293 295 294 295 294 293 295 304 316 307 289 274 258 252 248 246 244 241 237 238
269 270 271 275 273 272 278 280 282 285 282 295 291 296 306 310 307 304 298 296 297 293 292 290 292 293 305 310 301 283 269 254 250 247 245 245 242 238
268 273 279 279 278 275 275 280 282 283 280 283 292 292 294 307 308 308 302 298 296 294 295 291 292 291 301 309 308 291 273 261 250 247 246 244 244 241
276 282 283 279 284 286 277 279 282 285 283 287 291 294 294 302 306 307 302 299 296 295 297 296 302 305 306 305 304 294 276 263 254 245 243 243 243 242
276 280 275 273 275 289 288 292 298 293 287 286 292 294 295 296 302 301 302 298 294 293 291 297 302 305 307 310 310 304 278 264 255 247 241 240 240 240
276 282 278 280 278 280 288 294 297 292 286 284 287 290 291 296 298 297 294 296 294 294 295 293 296 294 293 294 291 291 289 267 256 249 242 237 237 238
275 277 278 281 281 282 285 290 293 293 290 289 285 283 288 297 297 295 294 293 294 294 293 292 298 296 294 292 284 280 280 273 256 246 239 235 233 234
272 278 281 283 284 282 286 291 293 291 287 289 290 291 295 297 299 297 292 292 292 294 295 297 301 295 297 289 283 282 276 268 256 243 234 230 229 230
273 278 279 279 284 286 291 295 291 291 294 290 287 295 298 300 299 298 296 296 293 295 299 293 302 297 297 296 291 285 275 268 252 239 231 225 226 226
273 278 275 276 284 286 292 296 297 297 295 293 293 294 298 299 298 298 299 296 296 299 306 304 305 299 296 290 288 280 274 263 248 235 226 221 222 222
276 278 272 277 280 288 291 296 295 297 297 300 303 308 312 314 313 306 306 300 302 305 313 313 307 298 291 288 283 274 256 252 242 231 218 216 216 216
274 267 272 280 286 290 294 294 295 298 306 311 313 313 314 317 314 310 311 303 304 309 322 322 312 307 289 273 276 264 263 242 239 226 212 211 211 210
254 263 274 280 289 293 295 296 294 305 311 311 309 313 315 319 318 320 317 315 314 324 330 334 315 299 287 284 272 278 268 243 223 210 209 206 206 205
255 268 279 287 289 294 296 293 300 309 310 305 308 315 320 324 323 325 323 319 324 330 345 346 336 296 287 277 271 279 272 228 202 208 208 204 204 202
268 280 284 290 295 291 289 298 309 309 305 308 316 320 327 326 325 326 325 327 331 338 351 356 349 297 276 273 287 286 277 201 206 210 205 203 204 208
276 283 292 294 287 288 296 307 310 307 310 315 319 324 327 325 325 328 330 332 337 349 358 1 6 332 290 285 287 259 251 212 218 208 202 204 207 208
277 280 276 275 274 280 297 303 305 308 315 322 325 329 328 327 327 332 334 340 343 355 5 5 9 18 332 274 9 245 247 218 205 208 205 206 207 208
271 266 259 262 268 285 293 295 302 310 320 327 329 332 332 330 334 334 338 348 350 355 6 9 11 18 5 20 11 3 246 204 216 202 207 210 212 212
260 249 250 263 274 281 287 297 308 316 322 330 335 340 337 338 339 338 341 351 353 351 5 10 14 20 27 22 27 28 3 202 192 217 208 206 214 217
266 262 259 262 269 280 293 303 310 314 322 338 345 346 343 346 346 345 345 353 358 355 6 12 11 18 31 40 45 36 49 50 193 191 208 212 204 205
254 243 252 264 283 295 302 309 313 316 335 350 349 349 348 352 351 352 353 357 4 7 6 6 20 23 27 34 39 47 56 67 83 219 192 187 200 197
254 234 267 293 302 301 306 312 306 324 351 2 352 347 353 355 357 357 357 357 4 11 14 12 25 26 40 40 42 58 59 64 73 94 84 120 168 189